This is the latest recevied weather packets stored in our database for station/object WD4ITN. If no packets are shown the sender has not sent any weather packets the latest 10 day(s).
| Time | Temp. | Humidity | Pressure | Rain* | Wind** | Luminosity | Snow |
|---|---|---|---|---|---|---|---|
| 1777736909 | 8.33° C | 50% | 1011.5 hPa | 0 mm | - | - | - |
| 1777736598 | 8.33° C | 53% | 1011.5 hPa | 0 mm | - | - | - |
| 1777736299 | 8.33° C | 52% | 1011.6 hPa | 0 mm | - | - | - |
| 1777735995 | 8.33° C | 54% | 1011.5 hPa | 0 mm | - | - | - |
| 1777735719 | 8.33° C | 49% | 1011.5 hPa | 0 mm | - | - | - |
| 1777735408 | 8.33° C | 53% | 1011.4 hPa | 0 mm | - | - | - |
| 1777735107 | 7.78° C | 53% | 1011.6 hPa | 0 mm | - | - | - |
| 1777734793 | 7.78° C | 56% | 1011.6 hPa | 0 mm | - | - | - |
| 1777734498 | 7.78° C | 54% | 1011.5 hPa | 0 mm | - | - | - |
| 1777734195 | 7.22° C | 54% | 1011.7 hPa | 0 mm | - | - | - |
| 1777733917 | 7.78° C | 53% | 1011.6 hPa | 0 mm | - | - | - |
| 1777733605 | 7.78° C | 52% | 1011.7 hPa | 0 mm | - | - | - |
| 1777733321 | 7.22° C | 55% | 1011.6 hPa | 0 mm | - | - | - |
| 1777733000 | 7.22° C | 54% | 1011.4 hPa | 0 mm | - | - | - |
| 1777732719 | 7.22° C | 54% | 1011.5 hPa | 0 mm | - | - | - |
| 1777732405 | 7.22° C | 53% | 1011.6 hPa | 0 mm | - | - | - |
| 1777732102 | 7.22° C | 56% | 1011.6 hPa | 0 mm | - | - | - |
| 1777731790 | 7.22° C | 54% | 1011.6 hPa | 0 mm | - | - | - |
| 1777731494 | 6.67° C | 56% | 1011.7 hPa | 0 mm | - | - | - |
| 1777731191 | 6.67° C | 54% | 1011.6 hPa | 0 mm | - | - | - |
| 1777730911 | 6.67° C | 56% | 1011.7 hPa | 0 mm | - | - | - |
| 1777730601 | 6.11° C | 53% | 1011.7 hPa | 0 mm | - | - | - |
| 1777730297 | 6.11° C | 56% | 1011.7 hPa | 0 mm | - | - | - |
| 1777730019 | 6.11° C | 55% | 1011.9 hPa | 0 mm | - | - | - |
| 1777729694 | 6.11° C | 56% | 1011.8 hPa | 0 mm | - | - | - |
* Rain since midnight (hover to see other rain measurements)
** Current wind speed in m/s (hover to see current wind gust speed)